Printer-friendly version

IAU Minor Planet Center

Minor Planet Center

MPEC 2006-S13 : 2006 SV5

The following Minor Planet Electronic Circular may be linked-to from your own Web pages, but must not otherwise be redistributed electronically.


Read MPEC 2006-S12 Read MPEC 2006-S14


M.P.E.C. 2006-S13                                Issued 2006 Sept. 18, 19:00 UT

     The Minor Planet Electronic Circulars contain information on unusual
         minor planets and routine data on comets.  They are published
   on behalf of Commission 20 of the International Astronomical Union by the
          Minor Planet Center, Smithsonian Astrophysical Observatory,
                          Cambridge, MA 02138, U.S.A.

                  Supported in part by the Brinson Foundation
                  Supported in part by the TABASGO Foundation
             Prepared using the Tamkin Foundation Computer Network

                              MPC@CFA.HARVARD.EDU
          URL http://cfa-www.harvard.edu/iau/mpc.html  ISSN 1523-6714

                                   2006 SV5

Observations:
     K06S05V* C2006 09 16.11717 21 28 28.33 -01 23 52.5          19.1 V ES013691
     K06S05V  C2006 09 16.14057 21 28 29.72 -01 24 46.2          19.2 V ES013691
     K06S05V  C2006 09 16.16398 21 28 31.08 -01 25 39.6          19.4 V ES013691
     K06S05V  C2006 09 17.08813 21 30 00.93 -02 02 02.6          19.3   ES013H55
     K06S05V  C2006 09 17.09807 21 30 01.57 -02 02 26.8          19.4   ES013H55
     K06S05V  C2006 09 17.10191 21 30 01.89 -02 02 36.1          19.3   ES013H55
     K06S05V  C2006 09 17.10608 21 30 02.17 -02 02 46.3          19.5   ES013H55
     K06S05V  C2006 09 17.10817 21 30 04.64 -02 02 38.3          19.7 V ES013291
     K06S05V  C2006 09 17.11200 21 30 04.96 -02 02 46.2                 ES013291
     K06S05V  C2006 09 17.11720 21 30 05.30 -02 03 00.5          18.7 V ES013291
     K06S05V 5C2006 09 17.16632 21 30 09.20 -02 05 04.8          19.3 R ES013673
     K06S05V 5C2006 09 17.17488 21 30 09.81 -02 05 25.9                 ES013673
     K06S05V 5C2006 09 17.18148 21 30 10.24 -02 05 42.3                 ES013673
     K06S05V 5C2006 09 17.18576 21 30 10.53 -02 05 51.8                 ES013673
     K06S05V  C2006 09 17.21404 21 30 11.62 -02 06 58.4          18.6 V ES013703
     K06S05V  C2006 09 17.22705 21 30 12.49 -02 07 29.7          18.5 V ES013703
     K06S05V  C2006 09 17.24000 21 30 13.32 -02 08 01.4          18.8 V ES013703
     K06S05V  C2006 09 17.28543 21 30 16.26 -02 09 50.5          19.0 R ES013651
     K06S05V  C2006 09 17.28689 21 30 16.38 -02 09 54.0          19.4 R ES013651
     K06S05V  C2006 09 17.28835 21 30 16.48 -02 09 57.1          19.1 R ES013651
     K06S05V  C2006 09 17.80345 21 31 18.06 -02 31 32.1          19.1 V ES013941
     K06S05V  C2006 09 17.80424 21 31 18.12 -02 31 34.2          19.2 V ES013941
     K06S05V  C2006 09 17.80504 21 31 18.16 -02 31 36.1          18.9 V ES013941
     K06S05V  C2006 09 17.80665 21 31 18.28 -02 31 40.4          19.2 V ES013941
     K06S05V  C2006 09 18.10458 21 31 50.68 -02 44 21.0          19.3 R ES013734
     K06S05V  C2006 09 18.10605 21 31 50.77 -02 44 24.3          18.9 R ES013734
     K06S05V  C2006 09 18.10751 21 31 50.89 -02 44 28.3          19.1 R ES013734
     K06S05V  C2006 09 18.10897 21 31 51.00 -02 44 30.9          19.9 R ES013734
     K06S05V  C2006 09 18.12575 21 31 54.10 -02 45 03.8          19.4 V ES013291
     K06S05V  C2006 09 18.12964 21 31 54.42 -02 45 14.0          19.4 V ES013291
     K06S05V  C2006 09 18.13341 21 31 54.71 -02 45 23.7          19.2 V ES013291
     K06S05V  C2006 09 18.14245 21 31 55.30 -02 45 48.2          18.8 V ES013703
     K06S05V  C2006 09 18.14775 21 31 55.70 -02 46 02.3          19.0 V ES013703
     K06S05V  C2006 09 18.15304 21 31 56.10 -02 46 15.7          19.0 V ES013703
     K06S05V  C2006 09 18.15833 21 31 56.49 -02 46 28.4          19.1 V ES013703
     K06S05V  C2006 09 18.16161 21 31 56.82 -02 46 45.8          19.0 R ES013682
     K06S05V 5C2006 09 18.17396 21 31 58.39 -02 47 12.8          19.2 R ES013673
     K06S05V  C2006 09 18.17475 21 31 57.87 -02 47 20.2          18.8 R ES013682
     K06S05V 5C2006 09 18.18218 21 31 59.03 -02 47 34.1                 ES013673
     K06S05V  C2006 09 18.18861 21 31 58.99 -02 47 56.8          18.8 R ES013682
     K06S05V 5C2006 09 18.19016 21 31 59.64 -02 47 54.7                 ES013673
     K06S05V 5C2006 09 18.19653 21 32 00.13 -02 48 11.3                 ES013673
     K06S05V  C2006 09 18.47194 21 32 31.63 -02 58 08.3          18.8 V ES013E12
     K06S05V  C2006 09 18.47235 21 32 31.70 -02 58 09.9          18.6 V ES013E12
     K06S05V  C2006 09 18.47277 21 32 31.70 -02 58 11.0          18.6 V ES013E12
     K06S05V  C2006 09 18.47318 21 32 31.68 -02 58 12.2          18.6 V ES013E12
     K06S05V  C2006 09 18.47359 21 32 31.75 -02 58 12.3          18.2 V ES013E12
     K06S05V  C2006 09 18.47510 21 32 31.86 -02 58 16.8          18.4 V ES013E12

Observer details:
291 LPL/Spacewatch II.  Observer R. S. McMillan.  1.8-m f/2.7 reflector + CCD.
651 Grasslands Observatory, Tucson.  Observer J. E. McGaha.  0.62-m f/5.1
    Newtonian reflector + CCD.
673 Table Mountain Observatory, Wrightwood.  Observer J. Young.  0.61-m f/16
    Cassegrain + CCD.
682 Kanab.  Observer E. Sheridan.  0.36-m f/5.5 Schmidt-Cassegrain + CCD.
691 Steward Observatory, Kitt Peak.  Observer R. S. McMillan.  0.9-m f/3
    reflector + CCD.
703 Catalina Sky Survey.  Observers A. R. Gibbs, R. A. Kowalski.  Measurers
    E. C. Beshore, E. J. Christensen, G. J. Garradd, A. R. Gibbs, A. D. Grauer,
    R. E. Hill, R. A. Kowalski, S. M. Larson, R. H. McNaught.  0.68-m Schmidt
    + CCD.
734 Farpoint Observatory.  Observer D. Tibbets.  Measurer G. Hug.  0.7-m
    reflector + CCD.
941 Observatorio Pla D'Arguines.  Observers R. Ferrando, M. Ferrando.
    Measurer R. Ferrando.  0.36-m f/10 Schmidt-Cassegrain + CCD.
E12 Siding Spring Survey.  Observer R. H. McNaught.  Measurers E. C. Beshore,
    E. J. Christensen, G. J. Garradd, A. R. Gibbs, A. D. Grauer, R. E. Hill,
    R. A. Kowalski, S. M. Larson, R. H. McNaught.  0.5-m Uppsala Schmidt + CCD.
H55 Astronomical Research Observatory, Charleston.  Observer R. Holmes.
    Measurer P. Miller.  0.81-m f/4.0 astrograph + CCD.

Orbital elements:
2006 SV5                                                 Earth MOID = 0.0353 AU
Epoch 2006 Sept. 22.0 TT = JDT 2454000.5                MPC
M 341.95254              (2000.0)            P               Q
n   0.56834565     Peri.  207.84698     +0.86304280     -0.50511734
a   1.4434254      Node   182.50132     +0.47772849     +0.81857403
e   0.2926719      Incl.    4.84593     +0.16411157     +0.27348316
P   1.73           H   23.1           G   0.15           U   7
Residuals in seconds of arc
060916 691  0.1-  0.0     060917 703  0.4+  0.6-    060918 703  0.3-  0.4-
060916 691  0.2-  0.2-    060917 651  0.2-  0.1-    060918 703  0.4-  0.1-
060916 691  0.1+  0.1-    060917 651  0.1+  0.1-    060918 703  0.6-  1.0+
060917 H55  0.7+  0.5-    060917 651  0.1+  0.4+    060918 682  0.2-  0.7-
060917 H55  0.0   0.5-    060917 941  0.6+  0.1-    060918 673  0.3-  0.1+
060917 H55  0.9+  0.5-    060917 941  0.5+  0.2-    060918 682  0.2+  0.9-
060917 H55  0.8+  0.6-    060917 941  0.1+  0.0     060918 673  0.2-  0.2+
060917 291  0.3-  0.5+    060917 941  0.0   0.2-    060918 682  0.9+  1.5-
060917 291  0.3+  1.9+    060918 734  0.2+  0.5-    060918 673  0.3-  0.4+
060917 291  0.1-  0.3+    060918 734  0.2-  0.0     060918 673  0.2-  0.3+
060917 673  0.2+  0.7-    060918 734  0.2-  0.3-    060918 E12  0.0   0.2+
060917 673  0.7+  0.9-    060918 734  0.3-  0.9+    060918 E12  0.5+  0.3-
060917 673  0.5+  1.2-    060918 291  0.1+  0.2+    060918 E12  0.1+  0.3-
060917 673  0.5+  0.3-    060918 291  0.3+  0.1+    060918 E12  0.7-  0.4-
060917 703  0.0   0.9-    060918 291  0.2+  0.2+    060918 E12  0.1-  0.6+
060917 703  0.5+  0.5-    060918 703  0.1-  0.1-    060918 E12  0.2-  0.1+

Ephemeris:
2006 SV5                 a,e,i = 1.44, 0.29, 5                   q = 1.0210
Date    TT    R. A. (2000) Decl.     Delta      r     Elong.  Phase     V
2006 09 12    21 23.42   +00 54.2    0.0929   1.088   150.5    27.1    19.3
2006 09 22    21 40.90   -05 52.3    0.0682   1.061   146.0    31.9    18.8
2006 10 02    22 28.76   -18 18.4    0.0487   1.040   142.8    35.6    18.1
2006 10 12    00 27.48   -35 53.3    0.0392   1.027   135.8    42.6    17.8
2006 10 22    03 19.90   -41 12.8    0.0452   1.021   123.5    54.4    18.4
2006 11 01    04 57.37   -34 57.9    0.0615   1.024   118.8    58.2    19.2
2006 11 11    05 37.68   -28 36.6    0.0816   1.034   120.9    55.2    19.7
2006 11 21    05 53.64   -23 17.7    0.103    1.053   126.7    48.8    20.1
2006 12 01    05 58.13   -18 16.9    0.126    1.078   134.2    41.0    20.4
2006 12 11    05 57.29   -13 13.5    0.152    1.109   142.1    33.1    20.6
2006 12 21    05 54.58   -08 05.1    0.183    1.144   148.5    26.7    20.9
2006 12 31    05 52.86   -03 02.8    0.222    1.183   151.5    23.4    21.3
2007 01 10    05 53.85   +01 35.3    0.270    1.224   150.1    23.6    21.8

Kyle E. Smalley              (C) Copyright 2006 MPC           M.P.E.C. 2006-S13

Read MPEC 2006-S12 Read MPEC 2006-S14


Our Web policy. Index to the CBAT/MPC/ICQ pages.


Valid HTML 4.01!